TFL1925 LATI-EHAM

Flight info

Callsign TFL1925
Flight time 2h 29m
Altitude 34000
Route INLOT DCT RETRA DCT PETOV DCT GOLVA DCT GRZ DCT MILGO DCT BAGSI DCT LAMSI DCT MAPOX DCT NORKU
Aircraft B738/M-SDE2E3FGHIRWXY/LB1

Departure

Time 2026-04-28 20:24
Airport Tirana International Airport Mother Teresa (LATI)

Arrival

Time 2026-04-28 22:53
Airport Amsterdam Airport Schiphol (EHAM)
Time Latitude Longitude Altitude Speed Heading
2026-04-28 20:04 41.41949 19.71519 122 ft 0 kts 264°
2026-04-28 20:17 41.41950 19.71539 117 ft 4 kts 274°
2026-04-28 20:17 41.41943 19.71571 117 ft 4 kts 316°
2026-04-28 20:17 41.41925 19.71584 117 ft 1 kts 354°
2026-04-28 20:20 41.41943 19.71581 118 ft 8 kts 353°
2026-04-28 20:20 41.42023 19.71569 121 ft 15 kts 355°
2026-04-28 20:20 41.42130 19.71555 117 ft 15 kts 353°
2026-04-28 20:21 41.42234 19.71540 119 ft 15 kts 354°
2026-04-28 20:21 41.42332 19.71526 119 ft 14 kts 354°
2026-04-28 20:21 41.42427 19.71514 116 ft 13 kts 354°
2026-04-28 20:21 41.42518 19.71502 116 ft 13 kts 354°
2026-04-28 20:22 41.42607 19.71490 114 ft 13 kts 354°
2026-04-28 20:22 41.42664 19.71553 117 ft 12 kts 87°
2026-04-28 20:22 41.42672 19.71665 117 ft 12 kts 84°
2026-04-28 20:22 41.42681 19.71774 114 ft 12 kts 84°
2026-04-28 20:23 41.42692 19.71878 118 ft 11 kts 101°
2026-04-28 20:23 41.42614 19.71905 115 ft 21 kts 175°
2026-04-28 20:23 41.42235 19.71953 117 ft 88 kts 175°
2026-04-28 20:23 41.41417 19.72064 125 ft 146 kts 174°
2026-04-28 20:24 41.40270 19.72205 369 ft 174 kts 175°
2026-04-28 20:24 41.39075 19.72330 1129 ft 176 kts 174°
2026-04-28 20:24 41.37846 19.72505 1822 ft 180 kts 173°
2026-04-28 20:24 41.36512 19.72698 2163 ft 207 kts 174°
2026-04-28 20:25 41.34995 19.72911 2390 ft 229 kts 174°
2026-04-28 20:25 41.33371 19.73132 2902 ft 239 kts 174°
2026-04-28 20:25 41.31633 19.73363 3269 ft 260 kts 175°
2026-04-28 20:25 41.29858 19.73077 3980 ft 265 kts 205°
2026-04-28 20:26 41.28482 19.71475 4786 ft 268 kts 239°
2026-04-28 20:26 41.27881 19.69139 5547 ft 271 kts 265°
2026-04-28 20:26 41.28093 19.66659 6314 ft 273 kts 290°
2026-04-28 20:26 41.29115 19.64537 7055 ft 276 kts 316°
2026-04-28 20:27 41.30685 19.63047 7813 ft 279 kts 330°
2026-04-28 20:27 41.32420 19.61840 8558 ft 283 kts 333°
2026-04-28 20:27 41.34209 19.60693 9313 ft 287 kts 333°
2026-04-28 20:27 41.36025 19.59543 10044 ft 291 kts 333°
2026-04-28 20:28 41.37888 19.58353 10453 ft 307 kts 333°
2026-04-28 20:28 41.39880 19.57065 10615 ft 329 kts 333°
2026-04-28 20:28 41.42005 19.55677 10795 ft 351 kts 332°
2026-04-28 20:28 41.44231 19.54213 10942 ft 371 kts 332°
2026-04-28 20:29 41.46597 19.52646 11114 ft 388 kts 332°
2026-04-28 20:29 41.49050 19.51015 11547 ft 396 kts 332°
2026-04-28 20:29 41.51526 19.49364 12164 ft 399 kts 332°
2026-04-28 20:29 41.54012 19.47702 12817 ft 401 kts 332°
2026-04-28 20:30 41.56511 19.46028 13445 ft 403 kts 332°
2026-04-28 20:30 41.59034 19.44335 13993 ft 407 kts 332°
2026-04-28 20:30 41.61582 19.42623 14517 ft 410 kts 332°
2026-04-28 20:30 41.64126 19.40911 15109 ft 411 kts 332°
2026-04-28 20:31 41.66687 19.39187 15696 ft 412 kts 332°
2026-04-28 20:31 41.69250 19.37459 16254 ft 413 kts 332°
2026-04-28 20:31 41.71818 19.35726 16788 ft 415 kts 332°
2026-04-28 20:31 41.74375 19.33999 17302 ft 417 kts 332°
2026-04-28 20:32 41.76975 19.32242 17812 ft 419 kts 332°
2026-04-28 20:32 41.79584 19.30477 18347 ft 420 kts 332°
2026-04-28 20:32 41.82199 19.28706 18792 ft 422 kts 332°
2026-04-28 20:32 41.84834 19.26920 19196 ft 425 kts 332°
2026-04-28 20:33 41.87473 19.25129 19597 ft 427 kts 332°
2026-04-28 20:33 41.90139 19.23319 20007 ft 429 kts 332°
2026-04-28 20:33 41.92817 19.21498 20425 ft 431 kts 332°
2026-04-28 20:33 41.95503 19.19670 20830 ft 434 kts 332°
2026-04-28 20:34 41.98201 19.17834 21214 ft 436 kts 332°
2026-04-28 20:34 42.00912 19.15986 21606 ft 438 kts 331°
2026-04-28 20:34 42.03634 19.14129 22001 ft 439 kts 331°
2026-04-28 20:34 42.06367 19.12262 22365 ft 441 kts 331°
2026-04-28 20:35 42.09113 19.10384 22698 ft 444 kts 331°
2026-04-28 20:35 42.11871 19.08497 23030 ft 446 kts 331°
2026-04-28 20:35 42.14650 19.06593 23380 ft 448 kts 331°
2026-04-28 20:35 42.17437 19.04691 23699 ft 450 kts 331°
2026-04-28 20:36 42.20230 19.02776 23962 ft 451 kts 331°
2026-04-28 20:36 42.23002 19.00868 24229 ft 453 kts 331°
2026-04-28 20:36 42.25812 18.98933 24546 ft 453 kts 331°
2026-04-28 20:36 42.28622 18.96997 24867 ft 454 kts 331°
2026-04-28 20:37 42.31430 18.95060 25132 ft 455 kts 331°
2026-04-28 20:37 42.34257 18.93109 25371 ft 457 kts 331°
2026-04-28 20:37 42.37101 18.91145 25623 ft 458 kts 331°
2026-04-28 20:37 42.39942 18.89182 25925 ft 458 kts 331°
2026-04-28 20:38 42.42772 18.87225 26294 ft 456 kts 331°
2026-04-28 20:38 42.45598 18.85268 26702 ft 454 kts 331°
2026-04-28 20:38 42.48398 18.83328 27163 ft 450 kts 330°
2026-04-28 20:38 42.51180 18.81397 27580 ft 449 kts 330°
2026-04-28 20:39 42.53956 18.79469 27942 ft 448 kts 330°
2026-04-28 20:39 42.56732 18.77538 28299 ft 447 kts 330°
2026-04-28 20:39 42.59491 18.75617 28649 ft 446 kts 330°
2026-04-28 20:39 42.62258 18.73689 29011 ft 445 kts 330°
2026-04-28 20:40 42.65003 18.71773 29407 ft 444 kts 330°
2026-04-28 20:40 42.67745 18.69860 29824 ft 442 kts 330°
2026-04-28 20:40 42.70448 18.67971 30181 ft 441 kts 330°
2026-04-28 20:40 42.73205 18.66042 30499 ft 440 kts 330°
2026-04-28 20:41 42.75922 18.64139 30822 ft 438 kts 330°
2026-04-28 20:41 42.78597 18.62264 31144 ft 437 kts 330°
2026-04-28 20:41 42.81297 18.60369 31446 ft 436 kts 330°
2026-04-28 20:41 42.83990 18.58478 31761 ft 434 kts 330°
2026-04-28 20:42 42.86672 18.56592 32070 ft 433 kts 330°
2026-04-28 20:42 42.89348 18.54709 32381 ft 432 kts 330°
2026-04-28 20:42 42.92009 18.52835 32732 ft 429 kts 330°
2026-04-28 20:42 42.94650 18.50973 33097 ft 426 kts 330°
2026-04-28 20:43 42.97282 18.49115 33393 ft 425 kts 330°
2026-04-28 20:43 42.99909 18.47259 33652 ft 425 kts 330°
2026-04-28 20:43 43.02532 18.45403 33932 ft 424 kts 330°
2026-04-28 20:43 43.05150 18.43550 34115 ft 424 kts 330°
2026-04-28 20:44 43.07788 18.41679 34098 ft 427 kts 330°
2026-04-28 20:44 43.13021 18.37966 34122 ft 424 kts 330°
2026-04-28 20:45 43.18239 18.34257 34116 ft 421 kts 330°
2026-04-28 20:45 43.23420 18.30566 34105 ft 419 kts 330°
2026-04-28 20:46 43.28589 18.26877 34108 ft 418 kts 330°
2026-04-28 20:46 43.33743 18.23192 34104 ft 417 kts 329°
2026-04-28 20:47 43.38899 18.19496 34098 ft 418 kts 329°
2026-04-28 20:47 43.44063 18.15788 34093 ft 420 kts 329°
2026-04-28 20:48 43.49262 18.12048 34091 ft 422 kts 329°
2026-04-28 20:48 43.54438 18.08318 34113 ft 423 kts 329°
2026-04-28 20:49 43.59664 18.04545 34105 ft 424 kts 329°
2026-04-28 20:49 43.64899 18.00758 34105 ft 424 kts 329°
2026-04-28 20:50 43.70118 17.96974 34096 ft 423 kts 329°
2026-04-28 20:50 43.75303 17.93210 34102 ft 423 kts 329°
2026-04-28 20:51 43.80499 17.89427 34110 ft 421 kts 329°
2026-04-28 20:51 43.85692 17.85640 34095 ft 421 kts 329°
2026-04-28 20:52 43.90865 17.81860 34097 ft 420 kts 329°
2026-04-28 20:52 43.96035 17.78074 34092 ft 420 kts 329°
2026-04-28 20:53 44.03760 17.72404 34108 ft 419 kts 329°
2026-04-28 20:53 44.08910 17.68615 34115 ft 418 kts 329°
2026-04-28 20:54 44.14057 17.64820 34103 ft 419 kts 329°
2026-04-28 20:54 44.19201 17.61020 34105 ft 418 kts 329°
2026-04-28 20:55 44.24333 17.57222 34127 ft 417 kts 329°
2026-04-28 20:55 44.29447 17.53429 34119 ft 415 kts 329°
2026-04-28 20:56 44.34522 17.49657 34110 ft 415 kts 329°
2026-04-28 20:56 44.39623 17.45859 34117 ft 415 kts 329°
2026-04-28 20:57 44.44721 17.42056 34123 ft 416 kts 328°
2026-04-28 20:57 44.48972 17.38878 34118 ft 416 kts 328°
2026-04-28 20:58 44.54088 17.35047 34106 ft 416 kts 328°
2026-04-28 20:58 44.59166 17.31237 34116 ft 416 kts 328°
2026-04-28 20:59 44.64284 17.27388 34104 ft 416 kts 328°
2026-04-28 20:59 44.69391 17.23541 34104 ft 416 kts 328°
2026-04-28 21:00 44.74486 17.19695 34107 ft 416 kts 328°
2026-04-28 21:00 44.79587 17.15837 34102 ft 416 kts 328°
2026-04-28 21:01 44.84672 17.11983 34102 ft 415 kts 328°
2026-04-28 21:01 44.89758 17.08121 34114 ft 415 kts 328°
2026-04-28 21:02 44.94806 17.04279 34106 ft 414 kts 328°
2026-04-28 21:02 44.99875 17.00414 34098 ft 414 kts 328°
2026-04-28 21:03 45.04938 16.96545 34106 ft 413 kts 328°
2026-04-28 21:03 45.09999 16.92671 34115 ft 413 kts 328°
2026-04-28 21:04 45.15060 16.88787 34118 ft 413 kts 328°
2026-04-28 21:04 45.20105 16.84909 34111 ft 412 kts 328°
2026-04-28 21:05 45.25140 16.81031 34117 ft 412 kts 328°
2026-04-28 21:05 45.30173 16.77146 34118 ft 411 kts 327°
2026-04-28 21:06 45.35205 16.73254 34125 ft 411 kts 327°
2026-04-28 21:06 45.40210 16.69375 34122 ft 410 kts 327°
2026-04-28 21:07 45.45218 16.65486 34121 ft 410 kts 327°
2026-04-28 21:07 45.50215 16.61597 34123 ft 409 kts 327°
2026-04-28 21:08 45.55208 16.57704 34110 ft 409 kts 327°
2026-04-28 21:08 45.60200 16.53803 34122 ft 409 kts 327°
2026-04-28 21:09 45.65170 16.49911 34130 ft 409 kts 327°
2026-04-28 21:09 45.70171 16.45987 34129 ft 410 kts 327°
2026-04-28 21:10 45.75135 16.42084 34133 ft 410 kts 327°
2026-04-28 21:10 45.80136 16.38145 34156 ft 410 kts 327°
2026-04-28 21:11 45.85152 16.34185 34124 ft 408 kts 327°
2026-04-28 21:11 45.90093 16.30277 34133 ft 407 kts 327°
2026-04-28 21:12 45.95054 16.26344 34134 ft 407 kts 327°
2026-04-28 21:12 46.00013 16.22405 34136 ft 406 kts 327°
2026-04-28 21:13 46.04966 16.18462 34150 ft 406 kts 327°
2026-04-28 21:13 46.09909 16.14519 34152 ft 405 kts 327°
2026-04-28 21:14 46.14815 16.10598 34154 ft 405 kts 327°
2026-04-28 21:14 46.19743 16.06650 34134 ft 404 kts 327°
2026-04-28 21:15 46.24667 16.02697 34148 ft 404 kts 327°
2026-04-28 21:15 46.29573 15.98753 34155 ft 403 kts 326°
2026-04-28 21:16 46.34477 15.94801 34146 ft 403 kts 326°
2026-04-28 21:16 46.39349 15.90870 34146 ft 402 kts 326°
2026-04-28 21:17 46.44239 15.86916 34158 ft 402 kts 326°
2026-04-28 21:17 46.49122 15.82957 34189 ft 402 kts 326°
2026-04-28 21:18 46.53996 15.78999 34169 ft 401 kts 326°
2026-04-28 21:18 46.58866 15.75035 34161 ft 400 kts 326°
2026-04-28 21:19 46.63725 15.71070 34162 ft 399 kts 326°
2026-04-28 21:19 46.68568 15.67112 34153 ft 399 kts 326°
2026-04-28 21:20 46.73372 15.63175 34208 ft 398 kts 326°
2026-04-28 21:20 46.78196 15.59207 34161 ft 397 kts 326°
2026-04-28 21:21 46.83009 15.55239 34154 ft 397 kts 326°
2026-04-28 21:21 46.87809 15.51273 34156 ft 396 kts 326°
2026-04-28 21:22 46.92615 15.47295 34163 ft 396 kts 326°
2026-04-28 21:22 46.96557 15.43892 34188 ft 394 kts 322°
2026-04-28 21:23 47.01795 15.38524 34166 ft 392 kts 321°
2026-04-28 21:23 47.06240 15.33932 34144 ft 393 kts 321°
2026-04-28 21:24 47.10712 15.29326 34159 ft 393 kts 321°
2026-04-28 21:24 47.15199 15.24708 34157 ft 394 kts 321°
2026-04-28 21:25 47.19688 15.20080 34157 ft 394 kts 321°
2026-04-28 21:25 47.24175 15.15443 34156 ft 395 kts 321°
2026-04-28 21:26 47.28666 15.10793 34188 ft 394 kts 321°
2026-04-28 21:26 47.33147 15.06137 34124 ft 395 kts 321°
2026-04-28 21:27 47.37638 15.01461 34158 ft 394 kts 321°
2026-04-28 21:27 47.42112 14.96770 34161 ft 395 kts 321°
2026-04-28 21:28 47.46549 14.92110 34215 ft 393 kts 321°
2026-04-28 21:28 47.50998 14.87431 34159 ft 392 kts 321°
2026-04-28 21:29 47.55435 14.82760 34135 ft 390 kts 321°
2026-04-28 21:29 47.59857 14.78094 34109 ft 391 kts 321°
2026-04-28 21:30 47.64281 14.73414 34136 ft 390 kts 321°
2026-04-28 21:30 47.68700 14.68729 34144 ft 390 kts 321°
2026-04-28 21:31 47.73111 14.64038 34157 ft 391 kts 320°
2026-04-28 21:31 47.77551 14.59315 34142 ft 392 kts 320°
2026-04-28 21:32 47.81960 14.54612 34153 ft 392 kts 320°
2026-04-28 21:32 47.86407 14.49858 34115 ft 393 kts 320°
2026-04-28 21:33 47.90840 14.45103 34132 ft 393 kts 320°
2026-04-28 21:33 47.95285 14.40334 34145 ft 393 kts 320°
2026-04-28 21:34 47.99700 14.35583 34155 ft 394 kts 320°
2026-04-28 21:34 48.04146 14.30789 34154 ft 394 kts 320°
2026-04-28 21:35 48.08554 14.25897 34158 ft 394 kts 319°
2026-04-28 21:35 48.12852 14.20815 34160 ft 393 kts 318°
2026-04-28 21:36 48.17146 14.15714 34151 ft 394 kts 318°
2026-04-28 21:36 48.21428 14.10649 34192 ft 394 kts 318°
2026-04-28 21:37 48.25732 14.05562 34162 ft 393 kts 318°
2026-04-28 21:37 48.30022 14.00486 34139 ft 392 kts 318°
2026-04-28 21:38 48.34293 13.95421 34147 ft 390 kts 318°
2026-04-28 21:38 48.38545 13.90366 34158 ft 389 kts 318°
2026-04-28 21:39 48.42800 13.85297 34143 ft 390 kts 318°
2026-04-28 21:39 48.47051 13.80219 34159 ft 391 kts 318°
2026-04-28 21:40 48.51281 13.75159 34162 ft 390 kts 318°
2026-04-28 21:40 48.55520 13.70075 34161 ft 388 kts 318°
2026-04-28 21:41 48.59749 13.64992 34152 ft 387 kts 318°
2026-04-28 21:41 48.63931 13.59955 34160 ft 386 kts 317°
2026-04-28 21:42 48.67681 13.54216 34161 ft 383 kts 309°
2026-04-28 21:42 48.71139 13.48066 34157 ft 383 kts 309°
2026-04-28 21:43 48.74605 13.41910 34185 ft 384 kts 308°
2026-04-28 21:43 48.78055 13.35788 34163 ft 383 kts 308°
2026-04-28 21:44 48.81513 13.29648 34154 ft 382 kts 308°
2026-04-28 21:44 48.84380 13.24549 34160 ft 381 kts 308°
2026-04-28 21:45 48.87824 13.18410 34165 ft 382 kts 307°
2026-04-28 21:45 48.91272 13.12247 34167 ft 383 kts 307°
2026-04-28 21:46 48.94729 13.06055 34156 ft 384 kts 307°
2026-04-28 21:46 48.98191 12.99840 34174 ft 385 kts 307°
2026-04-28 21:47 49.01654 12.93608 34170 ft 385 kts 307°
2026-04-28 21:47 49.05117 12.87362 34177 ft 387 kts 307°
2026-04-28 21:48 49.08573 12.81114 34182 ft 388 kts 307°
2026-04-28 21:48 49.12050 12.74813 34175 ft 388 kts 307°
2026-04-28 21:49 49.15521 12.68508 34176 ft 388 kts 307°
2026-04-28 21:49 49.18988 12.62195 34180 ft 387 kts 307°
2026-04-28 21:50 49.22448 12.55879 34177 ft 387 kts 307°
2026-04-28 21:50 49.25886 12.49588 34158 ft 387 kts 307°
2026-04-28 21:51 49.29345 12.43242 34184 ft 388 kts 307°
2026-04-28 21:51 49.32828 12.36838 34199 ft 394 kts 307°
2026-04-28 21:52 49.36366 12.30314 34193 ft 400 kts 307°
2026-04-28 21:52 49.39932 12.23726 34185 ft 401 kts 307°
2026-04-28 21:53 49.43476 12.17163 34189 ft 402 kts 307°
2026-04-28 21:53 49.47037 12.10552 34180 ft 400 kts 307°
2026-04-28 21:54 49.50584 12.03951 34180 ft 399 kts 307°
2026-04-28 21:54 49.54115 11.97361 34187 ft 398 kts 307°
2026-04-28 21:55 49.57634 11.90776 34188 ft 397 kts 307°
2026-04-28 21:55 49.61155 11.84171 34206 ft 400 kts 307°
2026-04-28 21:56 49.64699 11.77507 34196 ft 403 kts 307°
2026-04-28 21:56 49.68263 11.70787 34196 ft 405 kts 307°
2026-04-28 21:57 49.71816 11.64072 34200 ft 407 kts 307°
2026-04-28 21:57 49.75405 11.57272 34200 ft 408 kts 307°
2026-04-28 21:58 49.78998 11.50446 34200 ft 409 kts 307°
2026-04-28 21:58 49.82583 11.43618 34210 ft 409 kts 307°
2026-04-28 21:59 49.86163 11.36783 34195 ft 408 kts 307°
2026-04-28 22:00 49.91553 11.26453 34230 ft 412 kts 307°
2026-04-28 22:00 49.95161 11.19518 34230 ft 414 kts 307°
2026-04-28 22:01 49.98761 11.12579 34239 ft 415 kts 307°
2026-04-28 22:01 50.02390 11.05567 34236 ft 416 kts 307°
2026-04-28 22:02 50.06013 10.98547 34227 ft 416 kts 307°
2026-04-28 22:02 50.09636 10.91509 34241 ft 416 kts 307°
2026-04-28 22:03 50.13246 10.84475 34241 ft 415 kts 307°
2026-04-28 22:03 50.16836 10.77462 34244 ft 417 kts 307°
2026-04-28 22:04 50.20470 10.70344 34259 ft 421 kts 307°
2026-04-28 22:04 50.24121 10.63174 34255 ft 423 kts 307°
2026-04-28 22:05 50.27798 10.55931 34245 ft 426 kts 307°
2026-04-28 22:05 50.31493 10.48636 34264 ft 429 kts 307°
2026-04-28 22:06 50.35201 10.41292 34260 ft 431 kts 307°
2026-04-28 22:06 50.38912 10.33922 34261 ft 431 kts 307°
2026-04-28 22:07 50.42623 10.26532 34272 ft 431 kts 307°
2026-04-28 22:07 50.46343 10.19102 34256 ft 435 kts 308°
2026-04-28 22:08 50.50067 10.11644 34268 ft 438 kts 308°
2026-04-28 22:08 50.53841 10.04062 34279 ft 441 kts 308°
2026-04-28 22:09 50.57628 9.96433 34270 ft 444 kts 308°
2026-04-28 22:09 50.61425 9.88761 34271 ft 444 kts 308°
2026-04-28 22:10 50.65214 9.81083 34251 ft 444 kts 308°
2026-04-28 22:10 50.69003 9.73381 34271 ft 445 kts 308°
2026-04-28 22:11 50.72799 9.65643 34274 ft 445 kts 308°
2026-04-28 22:11 50.76560 9.57954 34281 ft 445 kts 308°
2026-04-28 22:12 50.80344 9.50194 34282 ft 445 kts 308°
2026-04-28 22:12 50.84123 9.42422 34277 ft 445 kts 307°
2026-04-28 22:13 50.87897 9.34636 34277 ft 446 kts 308°
2026-04-28 22:13 50.91674 9.26821 34291 ft 447 kts 308°
2026-04-28 22:14 50.95455 9.18974 34294 ft 448 kts 307°
2026-04-28 22:14 50.99235 9.11104 34284 ft 449 kts 308°
2026-04-28 22:15 51.03008 9.03228 34299 ft 451 kts 308°
2026-04-28 22:15 51.06809 8.95266 34293 ft 453 kts 308°
2026-04-28 22:16 51.10619 8.87262 34291 ft 454 kts 308°
2026-04-28 22:16 51.14507 8.79352 34288 ft 453 kts 313°
2026-04-28 22:17 51.18874 8.72111 34290 ft 453 kts 315°
2026-04-28 22:17 51.23331 8.64974 34297 ft 453 kts 315°
2026-04-28 22:18 51.27718 8.57841 34274 ft 454 kts 316°
2026-04-28 22:18 51.32112 8.50595 34297 ft 455 kts 315°
2026-04-28 22:19 51.36506 8.43298 34288 ft 455 kts 316°
2026-04-28 22:19 51.40901 8.35977 34289 ft 456 kts 316°
2026-04-28 22:20 51.45302 8.28622 34301 ft 457 kts 315°
2026-04-28 22:20 51.49711 8.21236 34288 ft 458 kts 315°
2026-04-28 22:21 51.54112 8.13841 34290 ft 459 kts 316°
2026-04-28 22:21 51.58501 8.06447 34299 ft 460 kts 316°
2026-04-28 22:21 51.60717 8.02706 34088 ft 464 kts 316°
2026-04-28 22:22 51.62951 7.98928 33650 ft 465 kts 316°
2026-04-28 22:22 51.65171 7.95166 33252 ft 461 kts 316°
2026-04-28 22:22 51.67377 7.91422 32854 ft 460 kts 316°
2026-04-28 22:22 51.69580 7.87678 32469 ft 461 kts 316°
2026-04-28 22:23 51.71790 7.83918 32084 ft 461 kts 316°
2026-04-28 22:23 51.73996 7.80159 31711 ft 461 kts 316°
2026-04-28 22:23 51.76173 7.76442 31321 ft 461 kts 316°
2026-04-28 22:23 51.78376 7.72678 30955 ft 462 kts 316°
2026-04-28 22:24 51.80586 7.68895 30648 ft 462 kts 316°
2026-04-28 22:24 51.82788 7.65120 30283 ft 462 kts 316°
2026-04-28 22:24 51.84999 7.61322 29859 ft 463 kts 316°
2026-04-28 22:24 51.87202 7.57533 29443 ft 463 kts 316°
2026-04-28 22:25 51.89415 7.53722 29017 ft 464 kts 316°
2026-04-28 22:25 51.91622 7.49913 28612 ft 464 kts 316°
2026-04-28 22:25 51.93836 7.46089 28209 ft 464 kts 316°
2026-04-28 22:25 51.96041 7.42272 27819 ft 465 kts 316°
2026-04-28 22:26 51.98258 7.38431 27423 ft 466 kts 316°
2026-04-28 22:26 52.00472 7.34587 27015 ft 467 kts 316°
2026-04-28 22:26 52.02665 7.30776 26642 ft 468 kts 316°
2026-04-28 22:26 52.04921 7.26847 26265 ft 470 kts 316°
2026-04-28 22:27 52.07124 7.23005 25894 ft 471 kts 317°
2026-04-28 22:27 52.09355 7.19106 25526 ft 471 kts 317°
2026-04-28 22:27 52.11595 7.15186 25159 ft 470 kts 317°
2026-04-28 22:27 52.13813 7.11297 24790 ft 468 kts 317°
2026-04-28 22:28 52.16022 7.07417 24440 ft 465 kts 317°
2026-04-28 22:28 52.18211 7.03571 24097 ft 461 kts 317°
2026-04-28 22:28 52.20358 6.99791 23726 ft 458 kts 317°
2026-04-28 22:28 52.22505 6.95951 23304 ft 455 kts 315°
2026-04-28 22:29 52.24529 6.91986 22870 ft 453 kts 313°
2026-04-28 22:29 52.26486 6.87977 22465 ft 451 kts 312°
2026-04-28 22:29 52.28432 6.83969 22073 ft 449 kts 312°
2026-04-28 22:29 52.30385 6.79998 21683 ft 447 kts 313°
2026-04-28 22:30 52.32338 6.76061 21299 ft 445 kts 313°
2026-04-28 22:30 52.34263 6.72193 20920 ft 443 kts 313°
2026-04-28 22:30 52.36204 6.68288 20538 ft 441 kts 313°
2026-04-28 22:30 52.38131 6.64404 20168 ft 439 kts 313°
2026-04-28 22:31 52.40056 6.60518 19808 ft 437 kts 312°
2026-04-28 22:31 52.41968 6.56652 19439 ft 435 kts 312°
2026-04-28 22:31 52.43868 6.52804 19084 ft 433 kts 312°
2026-04-28 22:31 52.45729 6.48911 18720 ft 433 kts 307°
2026-04-28 22:32 52.46955 6.44394 18284 ft 436 kts 286°
2026-04-28 22:32 52.47369 6.39501 17918 ft 429 kts 277°
2026-04-28 22:32 52.47571 6.34730 17510 ft 420 kts 276°
2026-04-28 22:32 52.47757 6.29995 17111 ft 411 kts 276°
2026-04-28 22:33 52.47951 6.25374 16711 ft 403 kts 276°
2026-04-28 22:33 52.48157 6.20829 16325 ft 395 kts 276°
2026-04-28 22:33 52.48369 6.16380 15941 ft 389 kts 277°
2026-04-28 22:33 52.48583 6.11990 15576 ft 383 kts 277°
2026-04-28 22:34 52.48723 6.09114 15320 ft 379 kts 277°
2026-04-28 22:34 52.48929 6.04830 14949 ft 374 kts 276°
2026-04-28 22:34 52.49130 6.00607 14586 ft 369 kts 276°
2026-04-28 22:34 52.49326 5.96440 14215 ft 364 kts 277°
2026-04-28 22:35 52.49518 5.92315 13817 ft 360 kts 277°
2026-04-28 22:35 52.49707 5.88251 13402 ft 351 kts 277°
2026-04-28 22:35 52.49887 5.84322 12982 ft 340 kts 277°
2026-04-28 22:35 52.50062 5.80506 12589 ft 331 kts 276°
2026-04-28 22:36 52.50232 5.76791 12208 ft 322 kts 277°
2026-04-28 22:36 52.50396 5.73169 11821 ft 315 kts 276°
2026-04-28 22:36 52.50558 5.69616 11442 ft 308 kts 276°
2026-04-28 22:36 52.50713 5.66141 11071 ft 305 kts 276°
2026-04-28 22:37 52.50865 5.62711 10708 ft 305 kts 276°
2026-04-28 22:37 52.51015 5.59189 10362 ft 307 kts 274°
2026-04-28 22:37 52.50675 5.55766 9958 ft 312 kts 248°
2026-04-28 22:37 52.49661 5.52631 9657 ft 310 kts 239°
2026-04-28 22:38 52.48546 5.49628 9394 ft 306 kts 238°
2026-04-28 22:38 52.47429 5.46678 9124 ft 303 kts 238°
2026-04-28 22:38 52.46323 5.43749 8864 ft 301 kts 238°
2026-04-28 22:38 52.45231 5.40839 8594 ft 298 kts 238°
2026-04-28 22:39 52.44153 5.37949 8343 ft 296 kts 238°
2026-04-28 22:39 52.43086 5.35078 8086 ft 294 kts 238°
2026-04-28 22:39 52.42104 5.32433 7861 ft 291 kts 238°
2026-04-28 22:39 52.41055 5.29602 7599 ft 290 kts 238°
2026-04-28 22:40 52.40010 5.26787 7406 ft 288 kts 238°
2026-04-28 22:40 52.38978 5.24006 7345 ft 283 kts 238°
2026-04-28 22:40 52.37964 5.21274 7333 ft 279 kts 238°
2026-04-28 22:40 52.36956 5.18562 7332 ft 280 kts 238°
2026-04-28 22:41 52.35935 5.15818 7336 ft 285 kts 238°
2026-04-28 22:41 52.34900 5.13045 7317 ft 286 kts 238°
2026-04-28 22:41 52.33881 5.10255 7302 ft 284 kts 243°
2026-04-28 22:41 52.33418 5.07166 7325 ft 280 kts 270°
2026-04-28 22:42 52.33406 5.03988 7313 ft 280 kts 271°
2026-04-28 22:42 52.33404 5.00814 7319 ft 280 kts 271°
2026-04-28 22:42 52.33392 4.97620 7322 ft 281 kts 271°
2026-04-28 22:42 52.33322 4.94425 7313 ft 283 kts 260°
2026-04-28 22:43 52.32528 4.91598 7248 ft 278 kts 226°
2026-04-28 22:43 52.31127 4.89496 7069 ft 271 kts 218°
2026-04-28 22:43 52.29696 4.87499 6838 ft 269 kts 218°
2026-04-28 22:43 52.28276 4.85522 6609 ft 267 kts 218°
2026-04-28 22:44 52.26867 4.83568 6380 ft 265 kts 218°
2026-04-28 22:44 52.25464 4.81629 6135 ft 263 kts 217°
2026-04-28 22:44 52.24068 4.79699 5884 ft 262 kts 218°
2026-04-28 22:44 52.22678 4.77780 5632 ft 262 kts 218°
2026-04-28 22:45 52.21451 4.75577 5343 ft 265 kts 237°
2026-04-28 22:45 52.20500 4.72993 5059 ft 266 kts 238°
2026-04-28 22:45 52.19543 4.70403 4750 ft 266 kts 237°
2026-04-28 22:45 52.18611 4.67864 4403 ft 262 kts 237°
2026-04-28 22:46 52.17702 4.65313 4092 ft 258 kts 237°
2026-04-28 22:46 52.16818 4.62781 3780 ft 255 kts 237°
2026-04-28 22:46 52.15839 4.60435 3446 ft 246 kts 219°
2026-04-28 22:46 52.14653 4.58484 3145 ft 245 kts 231°
2026-04-28 22:47 52.14165 4.55831 2807 ft 249 kts 275°
2026-04-28 22:47 52.14757 4.53316 2558 ft 232 kts 319°
2026-04-28 22:47 52.16062 4.52053 2371 ft 211 kts 356°
2026-04-28 22:47 52.17494 4.51670 2170 ft 206 kts
2026-04-28 22:48 52.18832 4.51898 2045 ft 188 kts 22°
2026-04-28 22:48 52.20077 4.52338 2007 ft 175 kts 29°
2026-04-28 22:48 52.20994 4.53366 2034 ft 155 kts 56°
2026-04-28 22:48 52.21619 4.54783 2033 ft 155 kts 62°
2026-04-28 22:49 52.22214 4.56247 2005 ft 150 kts 63°
2026-04-28 22:49 52.22750 4.57617 1994 ft 137 kts 64°
2026-04-28 22:49 52.23246 4.58908 2036 ft 133 kts 64°
2026-04-28 22:49 52.23746 4.60218 1887 ft 136 kts 64°
2026-04-28 22:50 52.24243 4.61518 1715 ft 132 kts 63°
2026-04-28 22:50 52.24716 4.62755 1539 ft 128 kts 64°
2026-04-28 22:50 52.25179 4.63967 1361 ft 124 kts 64°
2026-04-28 22:50 52.25640 4.65176 1216 ft 128 kts 62°
2026-04-28 22:51 52.26114 4.66417 1030 ft 129 kts 62°
2026-04-28 22:51 52.26590 4.67662 856 ft 130 kts 61°
2026-04-28 22:51 52.27073 4.68933 732 ft 132 kts 59°
2026-04-28 22:51 52.27570 4.70246 553 ft 137 kts 57°
2026-04-28 22:52 52.28079 4.71570 360 ft 140 kts 58°
2026-04-28 22:52 52.28604 4.72927 166 ft 142 kts 58°
2026-04-28 22:52 52.29122 4.74274 12 ft 136 kts 58°
2026-04-28 22:52 52.29575 4.75454 -3 ft 106 kts 58°
2026-04-28 22:53 52.29859 4.76193 -4 ft 50 kts 58°
2026-04-28 22:53 52.29981 4.76481 -3 ft 19 kts 42°
2026-04-28 22:53 52.30092 4.76594 -3 ft 18 kts 28°
2026-04-28 22:53 52.30201 4.76688 -2 ft 17 kts 26°
2026-04-28 22:54 52.30295 4.76778 -2 ft 15 kts 51°
2026-04-28 22:54 52.30349 4.76921 -2 ft 14 kts 58°
2026-04-28 22:54 52.30412 4.77037 -2 ft 14 kts 15°
2026-04-28 22:54 52.30497 4.76980 -2 ft 13 kts 327°
2026-04-28 22:55 52.30573 4.76902 -2 ft 13 kts 326°
2026-04-28 22:55 52.30611 4.76817 -2 ft 5 kts 304°
2026-04-28 22:55 52.30626 4.76777 -2 ft 4 kts 272°
2026-04-28 22:55 52.30613 4.76742 -2 ft 4 kts 229°
2026-04-28 22:56 52.30594 4.76718 -2 ft 3 kts 214°
2026-04-28 22:56 52.30578 4.76700 -2 ft 1 kts 215°
2026-04-28 22:56 52.30575 4.76696 -2 ft 0 kts 215°